Regional Weather Roundup
Issued by NWS Nashville, TN

Home | Current Version | Previous Version | Text Only | Print | Product List | Glossary On
Versions: 1 2 3 4 5 6 7 8 9 10 11 12 13 14 15 16 17 18 19 20 21 22 23 24 25 26 27 28 29 30 31 32 33 34 35 36 37 38 39 40 41 42 43 44 45 46 47 48 49 50
000
ASUS44 KOHX 312110
RWROHX
MIDDLE TENNESSEE HOURLY WEATHER ROUNDUP
NATIONAL WEATHER SERVICE NASHVILLE TN
400 PM CDT TUE MAY 31 2016

NOTE: "FAIR" INDICATES FEW OR NO CLOUDS BELOW 12,000 FEET WITH
NO SIGNIFICANT WEATHER AND/OR OBSTRUCTIONS TO VISIBILITY.

* THESE REPORTS ARE NOT UNDER NWS QUALITY CONTROL AND MAY NOT
  REPORT WEATHER SUCH AS PRECIPITATION AND FOG.


TNZ005>011-023>034-057-059-062>066-078-080-312200
...NORTHERN MIDDLE TENNESSEE...

CITY           SKY/WX    TMP DP  RH WIND       PRES   REMARKS
CLARKSVILLE    CLOUDY    85  60  42 SE7       29.91F
CROSSVILLE     PTSUNNY   82  62  50 N7        29.99F
DICKSON        CLOUDY    88  61  40 SW6       29.93F
LEBANON        MOSUNNY   85  60  42 CALM      29.91F
NASHVILLE      PTSUNNY   89  58  34 NE8       29.91F
SMYRNA         MOSUNNY   91  60  35 N6        29.91F HX  90
SPARTA         MOSUNNY   88  64  45 VRB3      29.93F
$$
TNZ056-058-060-061-075>077-079-093>097-312200
...SOUTHERN MIDDLE TENNESSEE...

CITY           SKY/WX    TMP DP  RH WIND       PRES   REMARKS
COLUMBIA       SUNNY     88  66  48 VRB3      29.90F HX  90
FAYETTEVILLE   SUNNY     88  61  40 VRB5      29.92F
LEWISBURG      SUNNY     90  60  36 VRB5      29.91F
MCMINNVILLE    SUNNY     88  59  37 CALM      29.93F
SHELBYVILLE    SUNNY     91  57  31 VRB3      29.92F HX  90
TULLAHOMA      SUNNY     88  55  33 N5        29.94F
WINCHESTER     SUNNY     88  57  35 W5        29.92F
$$


...KEY TO REMARKS...
VSB - VISIBILITY IN MILES
WCI - WIND CHILL INDEX
HX  - HEAT INDEX




USA.gov is the U.S. government's official web portal to all federal, state and local government web resources and services.